FW3737 Weather Reports


time (UTC)temp
F
wind
direction
speed
knots
gust
knots
rain 1hr
in
rain 24hr
in
rain mn
in
humidity
%
barometer
mb
20260505100030 0 0.0 0.0 0.00 0.00 0.00 1005.0
20260505094521 0 0.0 0.0 0.00 0.00 0.00 1005.5
20260505093017 0 0.0 0.0 0.00 0.00 0.00 1005.2
20260505091553 0 0.0 0.0 0.00 0.00 0.00 1007.2
20260505083103 0 0.0 0.0 0.00 0.00 0.00 1004.7
20260505081610 0 0.0 0.0 0.00 0.00 0.00 1004.4
20260505080059 0 0.0 0.0 0.00 0.00 0.00 1003.3
20260505073049 0 0.0 0.0 0.00 0.00 0.00 1002.4
20260505071552 0 0.0 0.0 0.00 0.00 0.00 1002.4
20260505070043 0 0.0 0.0 0.00 0.00 0.00 1002.4
20260505063027 0 0.0 0.0 0.00 0.00 0.00 1002.2
20260505061523 0 0.0 0.0 0.00 0.00 0.00 1002.6
20260505060019 0 0.0 0.0 0.00 0.00 0.00 1002.7
20260505053012 0 0.0 0.0 0.00 0.00 0.00 1001.8
20260505051512 0 0.0 0.0 0.00 0.00 0.00 1001.7
20260505041557 0 0.0 0.0 0.00 0.00 0.00 1002.7
20260505040053 0 0.0 0.0 0.00 0.00 0.00 1002.9
20260505034651 73 345 0.0 0.0 0.00 0.00 0.00 58 1002.8
20260505033049 74 344 0.0 0.0 0.00 0.00 0.00 58 1002.8
20260505031547 74 345 0.0 0.0 0.00 0.00 0.00 57 1002.7
20260505030048 75 345 0.0 0.0 0.00 0.00 0.00 57 1002.5
20260505024648 75 345 0.0 0.0 0.00 0.00 0.00 56 1002.3
20260505023045 76 345 0.0 0.0 0.00 0.00 0.00 55 1002.0
20260505021542 76 345 0.0 0.0 0.00 0.00 0.00 55 1001.8
20260505020040 77 345 0.0 0.0 0.00 0.00 0.00 54 1001.6
20260505014541 77 344 0.0 0.0 0.00 0.00 0.00 54 1001.2
20260505013040 78 344 0.0 0.0 0.00 0.00 0.00 53 1000.8
20260505011639 79 345 0.0 0.0 0.00 0.00 0.00 52 1000.8
20260505010043 79 345 0.0 0.0 0.00 0.00 0.00 52 1000.7
20260505004541 80 344 0.0 0.0 0.00 0.00 0.00 52 1000.6
20260505003039 80 344 0.0 0.0 0.00 0.00 0.00 52 1000.6
20260505001637 78 0.0 5.2 0.00 0.00 0.00 62 1000.6
20260505000037 78 0.9 5.2 0.00 0.00 0.00 61 1000.6
20260504234536 78 0.9 9.6 0.00 0.00 0.00 62 1000.6
20260504233041 79 4.3 11.3 0.00 0.00 0.00 60 1000.7
20260504231635 78 0.9 9.6 0.00 0.00 0.00 61 1000.7
20260504230036 78 1.7 9.6 0.00 0.00 0.00 59 1000.6
20260504224534 79 8.7 16.5 0.00 0.00 0.00 59 1000.5
20260504223034 79 7.0 14.8 0.00 0.00 0.00 57 1000.5
20260504221633 79 4.3 16.5 0.00 0.00 0.00 60 1000.7
20260504220035 80 9.6 17.4 0.00 0.00 0.00 58 1000.6
20260504214544 79 8.7 18.2 0.00 0.00 0.00 57 1000.7
20260504213036 80 1.7 14.8 0.00 0.00 0.00 60 1000.7
20260504211630 79 12.2 19.1 0.00 0.00 0.00 58 1000.8
20260504210029 79 15.6 21.7 0.00 0.00 0.00 56 1000.8
20260504204528 79 7.8 19.1 0.00 0.00 0.00 58 1000.9
20260504203025 79 13.9 22.6 0.00 0.00 0.00 59 1001.2
20260504201623 78 14.8 20.9 0.00 0.00 0.00 57 1001.4
20260504200035 78 11.3 20.9 0.00 0.00 0.00 58 1001.4
20260504194522 77 7.8 18.2 0.00 0.00 0.00 60 1001.6
20260504193021 76 7.0 23.5 0.00 0.00 0.00 61 1001.8
20260504191619 77 7.8 18.2 0.00 0.00 0.00 60 1001.7
20260504190019 77 12.2 22.6 0.00 0.00 0.00 58 1001.9
20260504184517 77 7.0 19.1 0.00 0.00 0.00 60 1001.8
20260504183032 77 9.6 20.0 0.00 0.00 0.00 59 1002.0
20260504181615 77 8.7 20.0 0.00 0.00 0.00 60 1002.1
20260504180017 77 9.6 15.6 0.00 0.00 0.00 58 1002.1
20260504174515 76 11.3 19.1 0.00 0.00 0.00 58 1002.3
20260504173009 75 7.8 21.7 0.00 0.00 0.00 62 1002.4
20260504171606 75 5.2 14.8 0.00 0.00 0.00 61 1002.6